SCP
0 0 0 0 0 0 0 0 0 0 0 0 0 0 0 0 0 0 0 0 0 0 0 0 0 0 1 0 1 1 0 0 0 0 0 0 0 0 0 0 0 0 0 0 0 0 0 0 0 0 0 0 0 0
0 0 0 0 0 0 0 0 0 0 0 0 0 0 0 0 0 0 0 0 0 -0 0 0 0 0 0 0 0 0 1 2 2 1 1 1 0 0 0 0 0 0 0 0 0 0 0 1 0 0 0 0 0 0
0 0 0 0 0 0 0 0 0 0 0 0 0 0 0 0 0 0 0 0 0 0 0 0 0 0 0 0 0 1 1 1 2 1 1 1 1 0 1 0 0 -0 0 0 0 0 0 0 1 0 0 0 -0 0
0 0 0 0 0 0 0 0 0 0 0 0 0 0 0 0 0 0 0 0 0 0 0 0 0 0 0 0 0 0 0 1 1 1 1 0 1 1 1 0 0 0 0 0 0 0 0 0 0 0 0 -0 -0 0
0 0 0 0 0 0 0 0 0 0 0 0 0 0 0 0 0 0 0 0 0 0 0 0 0 0 0 0 0 0 0 1 0 0 1 0 1 1 0 0 0 0 0 0 0 0 0 0 0 -0 0 -0 0 0
0 0 0 0 0 0 0 0 0 0 0 0 0 0 0 0 0 0 0 0 0 0 0 0 0 0 0 0 0 0 0 0 0 0 0 0 1 0 0 -0 0 0 -0 0 0 0 0 0 -0 -0 -0 -0 0 0
0 0 0 0 0 0 0 0 0 0 0 0 0 0 0 0 0 0 0 0 0 0 0 0 0 0 0 0 0 0 0 0 0 0 0 0 0 1 0 0 0 0 0 -0 -0 -0 0 -0 -0 -0 0 1 1 1
0 0 0 0 0 0 0 0 0 0 0 0 0 0 0 0 0 0 0 0 0 0 0 0 0 0 0 0 0 0 0 0 0 0 0 0 0 1 0 0 0 0 0 0 -0 0 0 0 0 0 1 1 1 1
0 0 0 0 0 0 0 0 0 0 0 0 0 0 0 0 0 0 0 0 0 0 0 0 0 0 0 0 0 0 0 0 0 0 0 0 0 0 0 0 0 0 0 0 0 0 0 0 -0 -0 1 2 1 1
0 0 0 0 0 0 0 0 0 0 0 0 0 0 0 0 0 0 0 0 0 0 0 0 0 0 0 0 -0 0 0 0 0 0 0 0 0 0 0 0 0 0 0 0 0 0 0 0 0 0 0 0 0 0
0 -0 0 0 0 0 0 0 0 0 0 0 0 0 0 0 0 0 0 0 0 0 0 0 0 0 0 0 0 0 0 0 0 0 0 0 0 0 0 0 0 0 0 0 0 0 0 0 0 0 0 1 1 0
0 0 0 0 0 0 0 0 0 0 0 0 0 0 0 0 0 0 0 0 0 0 0 0 0 0 0 0 0 0 0 0 0 0 0 0 0 0 0 0 0 0 0 0 0 0 0 0 0 0 0 0 0 0
0 0 0 0 0 0 0 0 0 0 0 0 0 0 0 0 0 0 0 0 0 0 0 0 0 0 0 0 0 0 0 0 0 0 0 1 1 0 0 0 0 0 0 0 0 0 0 0 0 0 0 0 0 0
0 0 0 0 0 0 0 0 0 0 0 1 0 0 0 0 0 0 0 0 0 0 0 0 0 0 0 0 0 0 0 0 0 0 0 1 1 1 1 0 0 0 0 0 0 0 0 0 0 0 0 -0 0 0
0 0 0 0 0 0 0 0 0 0 1 1 0 0 0 0 0 0 0 0 0 0 0 0 0 0 0 0 0 0 0 0 0 0 1 1 1 1 1 0 0 0 0 0 0 0 0 0 0 0 -0 0 0 0
0 0 0 0 0 0 0 0 0 0 0 0 0 0 0 0 0 0 0 0 0 0 0 0 0 0 0 0 0 0 0 0 0 1 1 1 1 1 1 1 0 1 1 0 0 0 0 -0 0 0 0 0 0 0
0 0 0 0 0 0 0 0 0 0 0 0 0 0 0 0 0 0 0 0 0 0 0 0 0 0 0 0 0 0 0 0 1 0 0 1 1 1 0 0 0 0 0 0 0 0 1 1 0 0 0 0 0 0
0 0 0 0 0 0 0 0 1 0 0 0 0 0 1 0 0 0 0 0 0 0 0 0 0 0 0 0 0 0 0 0 0 0 0 0 0 0 0 0 0 0 0 0 0 0 1 1 1 0 0 0 0 0
0 0 0 0 0 0 0 0 0 1 0 0 0 0 0 0 0 0 0 0 0 0 0 0 0 0 0 0 0 0 0 0 0 0 0 -0 0 0 0 0 0 0 0 0 0 0 1 1 1 1 0 0 0 0
0 0 0 0 0 0 0 0 0 1 0 0 0 0 0 0 0 0 0 0 0 0 0 0 0 0 0 0 0 0 0 0 0 0 0 0 -0 0 0 0 0 0 0 0 0 0 0 0 0 0 0 0 0 0
0 0 0 0 0 0 0 0 0 0 0 0 0 0 0 0 0 0 0 0 0 0 0 0 0 0 0 0 0 0 0 0 0 0 0 0 0 0 0 0 0 0 0 0 0 0 0 -0 -0 0 0 0 0 0
0 0 0 0 0 0 0 0 0 0 0 0 0 0 0 0 0 0 0 0 0 0 0 0 0 0 0 0 0 0 0 0 0 0 0 0 0 0 0 0 0 0 0 0 0 0 -0 0 0 0 0 0 0 0
0 0 0 0 0 0 0 0 0 0 0 0 0 0 0 0 0 0 0 0 0 0 0 0 0 0 0 0 0 0 0 0 0 0 0 0 0 0 0 0 0 0 0 0 0 0 0 0 -0 0 0 0 0 0
0 0 0 0 0 0 0 0 0 0 0 0 0 0 0 0 0 0 0 0 0 0 0 0 0 0 0 0 0 0 0 0 0 0 0 0 0 0 0 0 0 0 0 0 0 -0 0 0 0 0 0 0 0 0
0 0 0 0 0 0 0 0 0 0 0 0 0 0 0 0 0 0 0 0 0 0 0 0 0 0 0 0 0 0 0 0 0 0 0 0 0 0 0 0 0 0 0 0 0 0 0 0 0 0 0 0 0 0
0 0 0 0 0 0 0 0 0 0 0 0 0 0 0 0 0 0 0 0 0 0 0 0 0 0 0 0 0 0 0 0 0 0 0 0 0 0 0 0 0 0 0 0 0 0 0 0 0 0 0 0 0 0
0 0 0 0 0 0 0 0 0 0 0 0 0 0 0 0 0 0 0 0 0 0 0 0 0 0 0 0 0 0 0 0 0 0 0 0 0 0 0 0 0 0 0 0 0 0 0 0 0 0 0 0 0 0
0 0 0 0 0 0 0 0 0 0 0 0 0 0 0 0 0 0 0 0 0 0 0 0 0 0 0 0 0 0 0 0 0 0 0 0 0 0 0 0 0 0 0 0 0 0 0 0 0 0 0 0 0 0
0 0 0 0 0 0 0 0 0 0 0 0 0 0 0 0 0 0 0 0 0 0 0 0 0 0 0 0 0 0 0 0 0 0 0 0 0 0 0 0 0 0 0 0 0 0 0 0 0 0 0 0 0 0
0 0 0 0 0 0 0 0 0 0 0 0 0 0 0 0 0 0 0 0 0 0 0 0 0 0 0 0 0 0 0 0 0 0 0 0 0 0 0 0 0 0 0 0 0 0 0 0 0 0 0 0 0 0
-0 -0 -0 -0 0 -0 -0 0 0 0 0 0 0 0 0 0 0 0 0 0 0 0 0 0 0 0 0 0 0 0 0 0 0 0 0 0 0 0 0 0 0 0 0 0 0 0 0 0 0 0 0 0 0 0
-0 -0 -0 -0 -0 -0 -0 -0 -0 0 0 0 0 -0 -0 0 -0 0 0 0 0 0 0 0 0 0 0 0 0 0 0 0 0 0 0 0 0 0 0 0 0 0 0 0 0 0 0 0 0 0 0 0 0 0
0 0 0 0 0 0 -0 -0 0 0 0 0 -0 0 0 0 0 0 0 0 0 0 0 0 0 0 0 -0 0 0 0 0 0 0 0 0 0 0 0 0 0 0 0 0 0 0 0 0 0 0 0 0 0 0
Wind_Speed_500mb
34 36 33 45 40 46 45 43 43 41 37 37 34 30 29 31 32 32 25 26 17 12 44 27 38 30 21 20 7 18 7 1 7 2 2 7 5 6 7 4 9 5 2 2 5 4 12 14 4 9 12 11 37 28
33 38 34 42 45 46 44 43 43 40 36 36 33 30 29 32 31 30 16 8 16 29 28 23 24 8 11 12 15 12 13 18 15 4 6 6 7 8 3 3 2 3 3 7 11 12 23 18 37 44 43 48 54 15
32 39 37 43 45 46 44 43 42 40 36 34 32 30 27 31 36 39 14 9 10 16 35 47 22 10 20 12 12 6 10 14 7 12 7 6 5 5 4 8 6 12 10 3 13 16 43 36 12 12 10 58 42 14
33 40 38 51 45 44 45 44 42 39 34 33 31 29 26 30 40 44 24 8 16 7 9 23 29 29 27 13 3 2 5 11 12 12 6 4 3 15 3 3 3 11 11 3 13 21 50 61 31 9 29 38 29 15
35 41 44 53 42 42 46 45 42 37 34 32 30 28 26 29 35 36 17 6 17 11 6 18 30 25 29 23 13 7 8 13 12 9 4 7 20 7 5 3 5 3 10 8 8 23 47 30 9 29 33 34 32 21
35 43 49 57 40 42 49 45 41 36 33 31 29 27 28 33 36 31 9 13 23 21 6 7 31 30 30 20 19 16 11 8 13 9 18 12 4 5 5 3 14 15 16 5 10 28 10 13 18 43 41 19 28 30
35 53 49 59 52 49 49 44 40 35 32 30 28 27 26 34 38 18 7 7 21 15 7 10 6 35 32 24 22 21 18 18 9 10 10 27 18 14 6 5 17 23 7 10 4 8 11 27 33 41 26 26 24 26
40 57 65 56 53 51 49 44 40 35 31 28 26 24 24 26 32 18 7 5 13 14 7 6 3 15 31 27 30 29 32 27 21 14 14 14 23 10 3 10 16 9 13 10 11 15 6 17 17 34 27 27 33 34
53 67 72 62 54 53 49 45 40 34 31 29 26 24 22 23 16 15 9 5 10 10 5 7 3 1 14 19 25 24 20 3 18 11 23 15 6 6 8 3 10 9 18 18 21 24 16 31 49 48 36 43 35 34
64 72 73 63 59 54 50 46 40 35 33 32 33 14 10 18 15 18 8 7 9 9 7 9 8 7 13 18 11 12 13 6 4 12 30 8 8 32 6 15 7 11 16 21 29 39 8 44 37 41 25 46 30 36
74 74 71 65 60 55 51 46 41 37 35 32 17 7 23 27 16 9 12 13 17 11 14 15 18 13 6 4 3 11 1 6 5 10 6 4 4 10 15 15 12 12 14 22 31 24 12 18 41 32 22 20 33 30
66 77 67 63 60 57 52 47 44 40 25 13 13 20 28 13 10 10 7 8 9 11 15 32 30 29 9 5 1 8 1 5 7 2 2 2 4 19 16 14 15 16 19 26 20 11 19 9 11 22 11 28 27 30
77 72 67 62 59 55 50 47 45 31 25 18 10 10 9 10 6 11 11 7 4 9 19 23 13 10 8 6 5 11 7 7 17 1 1 5 16 17 13 18 21 12 16 1 17 31 25 19 38 33 21 14 32 36
75 68 64 60 55 50 47 46 42 29 19 7 9 5 6 7 7 7 7 10 25 16 21 15 8 5 8 9 6 4 7 6 3 4 6 3 12 13 13 12 25 20 15 7 10 20 44 38 28 9 26 43 37 34
71 65 60 55 50 46 43 45 33 24 3 6 8 7 9 17 29 20 24 17 25 31 18 13 6 4 4 4 5 4 4 4 6 6 7 19 13 14 16 20 23 23 9 7 10 2 21 16 27 36 45 47 42 41
67 60 55 52 47 42 37 36 26 12 3 3 4 5 15 14 18 11 23 22 17 16 8 3 3 4 6 5 5 9 6 9 2 13 25 17 14 11 11 16 21 19 16 8 15 15 23 42 46 50 44 41 37 37
62 59 53 48 43 39 35 36 15 5 3 4 6 11 21 8 27 11 15 22 14 12 1 3 4 10 8 4 6 3 6 13 39 35 25 14 11 10 11 17 17 16 13 9 8 6 10 21 29 35 38 40 36 39
60 57 52 50 48 44 36 24 8 2 4 6 2 17 28 36 39 33 29 22 13 10 10 2 7 2 5 4 3 13 35 44 27 20 9 6 5 8 9 15 13 19 13 11 11 10 11 18 23 29 35 36 34 34
60 53 52 53 50 36 10 6 6 5 4 10 20 19 22 21 33 28 21 8 12 12 7 2 3 3 3 21 22 29 36 37 33 17 5 5 9 5 10 12 20 16 17 16 18 18 16 21 24 28 35 38 39 38
55 55 49 39 33 15 9 8 8 6 8 8 6 8 9 7 8 12 11 10 11 6 5 4 2 22 27 26 34 30 23 22 16 24 37 12 3 17 14 20 18 14 20 25 26 26 26 19 38 32 30 27 37 38
45 42 33 19 29 20 11 9 10 9 6 8 2 4 6 12 11 6 4 3 7 7 5 9 24 22 17 14 15 17 18 15 12 3 14 17 24 22 21 24 19 23 22 32 42 25 34 28 58 60 62 46 47 41
42 35 19 18 16 10 11 11 6 4 7 9 8 7 2 6 4 8 10 12 9 20 26 15 18 10 14 9 13 10 6 6 4 3 10 15 17 20 26 25 31 26 34 41 44 32 27 25 26 35 30 49 50 37
46 35 19 12 9 11 6 9 6 2 4 2 2 3 5 5 10 10 5 7 10 24 20 7 10 13 13 6 5 8 10 12 15 14 16 19 21 22 22 25 26 34 36 32 38 33 30 22 17 16 23 37 33 34
25 11 9 10 8 8 10 6 7 4 6 8 5 5 2 3 5 7 3 12 25 26 28 26 13 7 8 12 18 20 19 17 22 24 24 24 26 27 25 23 24 28 36 41 42 43 39 21 33 25 23 26 24 20
8 6 9 2 7 11 10 13 12 10 7 9 6 5 6 10 3 4 7 17 27 33 31 20 24 14 12 15 20 21 17 15 18 16 16 20 22 23 24 26 27 28 30 32 33 36 34 30 40 34 33 27 11 14
6 4 9 8 12 9 11 11 13 14 9 11 10 6 4 2 4 7 7 21 29 21 6 7 3 1 7 13 15 18 23 22 24 17 16 19 23 27 32 37 42 44 43 45 46 36 34 35 37 41 43 45 35 28
4 6 3 10 11 8 8 11 19 17 7 7 7 8 4 6 6 5 14 13 6 9 10 9 7 8 10 15 20 25 23 20 27 23 26 30 31 27 24 30 33 33 37 40 41 40 40 41 40 37 36 32 29 31
12 11 7 17 15 4 3 6 7 8 8 5 5 9 5 7 4 13 19 15 10 6 3 6 11 14 16 18 19 25 28 25 24 22 24 27 25 22 10 26 25 23 27 32 32 33 30 34 32 27 28 39 47 41
7 8 8 13 11 8 6 6 4 3 4 7 3 6 13 8 11 15 13 6 7 10 11 15 18 21 21 21 27 27 26 27 27 25 26 27 25 28 30 27 29 34 31 28 31 28 32 33 35 35 40 43 32 35
13 9 4 9 7 6 10 11 13 15 17 18 19 22 25 30 34 30 27 21 17 19 23 27 24 22 26 27 29 34 32 29 26 27 31 27 25 35 39 40 40 40 40 36 33 36 40 43 45 40 41 47 37 37
3 7 7 9 7 13 12 15 17 15 18 22 24 27 28 28 29 30 32 30 28 25 29 32 27 26 31 34 30 31 35 35 32 32 33 32 27 24 25 27 28 33 40 44 42 40 34 34 35 42 43 50 59 52
7 9 12 17 21 17 16 18 22 27 29 31 33 32 31 27 27 29 27 26 28 34 37 38 38 33 25 15 21 19 19 26 29 31 33 36 39 44 49 50 50 50 53 57 60 62 64 60 57 48 37 35 31 37
9 14 18 17 15 18 17 20 23 32 33 35 39 41 44 43 34 34 19 14 15 15 13 20 26 18 6 13 20 21 22 24 30 29 31 31 35 42 45 42 42 46 48 47 46 45 47 45 37 35 37 42 50 39
Wind_Direction_500mb
227 223 226 211 212 210 210 206 206 206 199 202 202 196 200 209 213 217 218 225 264 258 277 339 13 33 28 26 28 332 59 110 138 161 255 258 262 271 53 40 137 120 93 297 9 111 294 209 276 179 316 257 227 248
228 217 223 207 214 209 206 203 204 203 196 198 199 193 194 201 200 199 202 218 254 242 253 311 335 351 70 31 6 324 342 41 7 -0 15 324 306 58 275 254 126 338 169 201 179 214 249 214 39 30 12 2 308 135
227 213 216 207 210 206 203 201 201 200 194 194 194 190 189 195 195 187 175 167 266 275 283 270 277 278 277 286 288 348 40 8 8 356 302 275 315 137 197 234 188 209 154 23 16 1 33 100 118 56 91 62 339 69
226 210 205 202 204 202 200 198 197 197 190 189 191 187 184 187 193 195 190 149 206 272 265 271 265 248 230 216 246 353 330 320 323 317 268 260 289 308 339 133 249 60 75 332 279 28 60 27 18 31 107 147 177 166
219 208 203 196 196 198 199 194 194 192 187 185 187 183 177 179 185 189 193 204 211 233 301 278 189 195 196 213 197 223 281 343 347 319 305 276 276 23 5 29 62 113 193 172 230 111 112 168 195 228 232 167 139 137
217 205 193 192 195 201 196 190 189 189 183 181 183 180 172 170 166 166 172 215 216 227 286 297 215 200 199 203 208 218 244 294 300 303 300 292 10 93 95 163 247 195 177 194 228 195 188 205 140 188 182 152 128 128
221 192 191 189 199 199 191 186 186 184 180 177 180 178 170 173 173 172 179 184 200 192 220 271 195 185 200 208 219 229 236 251 268 283 256 293 296 174 128 170 269 207 192 48 30 154 123 174 207 182 143 135 125 117
209 190 181 182 197 191 187 182 181 179 174 170 172 173 168 170 182 204 169 151 169 177 207 268 187 159 198 204 220 231 240 245 229 236 273 287 304 245 233 275 314 223 190 266 285 204 156 290 353 148 157 135 133 127
200 190 174 192 186 186 183 178 176 172 166 160 160 162 162 172 168 188 179 192 184 194 256 259 2 93 182 238 231 222 214 222 255 229 233 245 265 259 277 53 347 283 207 340 329 286 219 149 198 233 161 154 147 137
189 184 178 184 181 182 179 174 171 166 161 156 151 150 170 179 145 147 158 192 190 204 240 256 297 264 205 203 223 193 179 202 277 241 237 185 231 256 316 16 243 273 320 328 323 320 258 177 132 117 94 129 143 148
180 177 178 178 175 178 175 171 168 163 160 155 168 200 162 155 150 175 203 204 190 197 210 243 258 283 324 100 31 21 28 291 214 241 147 174 254 70 50 35 17 354 318 299 294 289 204 194 159 166 163 163 169 158
177 172 171 172 174 175 172 170 168 164 158 173 138 123 136 152 190 202 207 207 202 199 207 190 221 249 96 75 302 7 261 283 270 29 48 277 75 53 29 357 342 318 302 298 299 223 203 187 173 155 117 163 173 168
167 164 168 170 172 172 171 170 166 157 160 159 148 153 187 181 165 192 193 177 213 186 194 161 152 132 105 193 252 168 239 246 320 76 259 79 64 56 26 353 342 349 345 8 95 112 106 100 120 126 103 191 172 164
157 163 165 167 168 170 170 169 168 167 164 177 171 27 164 195 218 217 199 180 205 235 141 145 128 130 176 183 237 216 234 340 304 301 87 108 63 30 13 4 17 15 6 27 99 137 141 149 116 84 185 187 191 187
158 160 161 163 165 167 169 174 170 171 155 263 180 170 215 218 207 230 208 89 73 117 133 146 101 143 256 204 183 31 262 236 214 253 103 82 58 30 9 349 348 3 333 352 19 138 150 159 164 166 177 188 197 199
155 154 159 158 160 162 161 163 157 155 37 317 308 281 233 252 115 100 100 102 89 95 110 16 141 197 241 164 253 187 206 200 131 101 107 99 78 43 24 4 339 349 18 46 30 117 138 152 147 158 185 191 198 199
152 149 152 150 149 147 148 156 131 87 349 290 267 329 321 267 138 109 133 133 137 108 166 202 255 189 243 209 237 110 8 102 112 108 108 95 82 59 18 343 352 341 336 348 320 346 181 185 180 184 186 195 201 201
145 141 142 142 141 137 135 136 101 85 252 257 356 49 45 63 81 89 89 96 89 9 311 333 351 36 288 204 29 357 107 121 117 118 106 157 21 53 353 319 292 339 310 295 299 302 236 209 213 206 203 206 206 210
134 137 140 143 142 133 99 74 91 9 47 68 52 69 51 62 76 76 59 91 75 42 350 305 293 285 48 53 86 77 84 83 83 63 252 227 65 30 339 337 346 323 333 333 316 302 304 262 249 241 238 225 222 221
133 135 139 139 145 98 79 56 62 43 48 14 67 48 38 31 58 65 50 49 18 2 333 325 351 70 95 87 93 105 92 89 114 59 54 286 49 43 9 347 342 310 308 307 294 284 275 12 19 21 14 246 240 231
134 126 128 131 91 72 80 42 55 49 23 18 100 108 35 77 64 30 12 2 359 329 320 272 278 130 129 133 113 113 139 147 133 57 335 355 356 347 356 358 354 333 334 346 320 298 300 288 314 316 330 332 343 317
168 178 137 78 57 64 72 58 57 26 23 7 57 30 9 111 271 252 251 260 224 251 266 317 91 81 118 104 121 131 154 140 125 313 306 328 335 328 324 349 343 343 342 335 330 330 348 5 348 276 310 315 291 300
130 132 108 74 53 35 345 53 40 88 84 41 54 312 271 205 212 205 244 245 243 247 285 359 128 104 131 73 5 335 327 329 324 316 306 305 301 310 307 309 321 327 332 343 349 344 318 283 280 281 294 251 303 314
115 109 118 140 139 139 147 166 147 178 206 179 219 237 232 255 307 179 233 267 262 274 289 258 224 241 283 289 287 280 287 289 288 285 287 285 286 288 291 298 313 319 323 329 335 344 5 320 314 306 297 298 316 301
96 88 111 57 156 159 146 167 171 184 190 182 219 205 194 199 246 255 247 240 258 275 277 276 270 222 246 271 287 301 309 315 314 319 317 324 329 325 328 329 326 330 332 335 350 351 341 344 2 344 345 321 289 295
92 156 180 127 164 171 159 159 186 188 174 179 191 204 253 148 214 241 206 252 259 303 308 199 146 349 318 345 344 334 336 340 329 321 319 327 332 328 324 323 323 318 313 318 322 335 341 342 335 326 342 345 341 347
120 117 165 126 123 155 169 154 162 174 194 187 172 171 184 210 228 257 276 291 330 58 79 60 55 40 359 334 324 314 309 316 325 307 305 303 305 310 316 311 310 318 318 315 314 315 312 310 314 319 319 325 326 324
33 102 109 131 132 24 2 162 167 190 189 186 177 194 208 203 194 51 86 110 104 99 77 11 354 333 304 285 298 297 306 304 299 307 305 300 303 323 299 307 304 312 332 333 324 321 321 320 311 304 317 328 326 330
105 99 97 75 66 50 344 327 303 224 242 276 232 237 267 292 306 341 4 4 355 353 340 328 314 300 295 299 296 301 297 302 309 325 326 320 320 322 311 318 330 339 334 314 311 312 324 329 330 327 313 306 304 319
123 155 172 180 197 201 216 214 261 281 285 285 285 289 283 283 286 289 296 297 288 284 289 293 295 289 303 306 310 305 305 317 322 317 330 327 322 310 299 307 312 314 315 321 324 317 312 314 320 312 307 308 305 311
308 210 212 218 247 270 255 232 243 253 256 269 272 272 274 280 283 276 270 274 277 271 269 276 280 278 284 293 297 301 301 303 302 301 307 314 316 312 304 302 297 296 296 297 299 297 298 306 309 321 299 298 296 298
235 242 267 272 264 269 297 292 262 240 233 239 248 255 263 262 270 275 267 266 267 264 266 267 273 274 266 300 284 278 294 305 307 301 295 296 302 308 310 309 308 305 302 303 303 301 298 293 288 305 315 313 317 323
280 270 262 267 279 277 285 260 265 274 272 260 247 240 236 235 234 258 250 274 266 267 262 264 252 286 237 246 297 314 321 314 305 305 301 303 306 311 307 308 314 315 312 309 304 301 299 287 299 308 306 301 312 305
Wind_Speed_850mb
34 36 33 45 40 46 45 43 43 41 37 37 34 30 29 31 32 32 25 26 17 12 44 27 38 30 21 20 7 18 7 1 7 2 2 7 5 6 7 4 9 5 2 2 5 4 12 14 4 9 12 11 37 28
33 38 34 42 45 46 44 43 43 40 36 36 33 30 29 32 31 30 16 8 16 29 28 23 24 8 11 12 15 12 13 18 15 4 6 6 7 8 3 3 2 3 3 7 11 12 23 18 37 44 43 48 54 15
32 39 37 43 45 46 44 43 42 40 36 34 32 30 27 31 36 39 14 9 10 16 35 47 22 10 20 12 12 6 10 14 7 12 7 6 5 5 4 8 6 12 10 3 13 16 43 36 12 12 10 58 42 14
33 40 38 51 45 44 45 44 42 39 34 33 31 29 26 30 40 44 24 8 16 7 9 23 29 29 27 13 3 2 5 11 12 12 6 4 3 15 3 3 3 11 11 3 13 21 50 61 31 9 29 38 29 15
35 41 44 53 42 42 46 45 42 37 34 32 30 28 26 29 35 36 17 6 17 11 6 18 30 25 29 23 13 7 8 13 12 9 4 7 20 7 5 3 5 3 10 8 8 23 47 30 9 29 33 34 32 21
35 43 49 57 40 42 49 45 41 36 33 31 29 27 28 33 36 31 9 13 23 21 6 7 31 30 30 20 19 16 11 8 13 9 18 12 4 5 5 3 14 15 16 5 10 28 10 13 18 43 41 19 28 30
35 53 49 59 52 49 49 44 40 35 32 30 28 27 26 34 38 18 7 7 21 15 7 10 6 35 32 24 22 21 18 18 9 10 10 27 18 14 6 5 17 23 7 10 4 8 11 27 33 41 26 26 24 26
40 57 65 56 53 51 49 44 40 35 31 28 26 24 24 26 32 18 7 5 13 14 7 6 3 15 31 27 30 29 32 27 21 14 14 14 23 10 3 10 16 9 13 10 11 15 6 17 17 34 27 27 33 34
53 67 72 62 54 53 49 45 40 34 31 29 26 24 22 23 16 15 9 5 10 10 5 7 3 1 14 19 25 24 20 3 18 11 23 15 6 6 8 3 10 9 18 18 21 24 16 31 49 48 36 43 35 34
64 72 73 63 59 54 50 46 40 35 33 32 33 14 10 18 15 18 8 7 9 9 7 9 8 7 13 18 11 12 13 6 4 12 30 8 8 32 6 15 7 11 16 21 29 39 8 44 37 41 25 46 30 36
74 74 71 65 60 55 51 46 41 37 35 32 17 7 23 27 16 9 12 13 17 11 14 15 18 13 6 4 3 11 1 6 5 10 6 4 4 10 15 15 12 12 14 22 31 24 12 18 41 32 22 20 33 30
66 77 67 63 60 57 52 47 44 40 25 13 13 20 28 13 10 10 7 8 9 11 15 32 30 29 9 5 1 8 1 5 7 2 2 2 4 19 16 14 15 16 19 26 20 11 19 9 11 22 11 28 27 30
77 72 67 62 59 55 50 47 45 31 25 18 10 10 9 10 6 11 11 7 4 9 19 23 13 10 8 6 5 11 7 7 17 1 1 5 16 17 13 18 21 12 16 1 17 31 25 19 38 33 21 14 32 36
75 68 64 60 55 50 47 46 42 29 19 7 9 5 6 7 7 7 7 10 25 16 21 15 8 5 8 9 6 4 7 6 3 4 6 3 12 13 13 12 25 20 15 7 10 20 44 38 28 9 26 43 37 34
71 65 60 55 50 46 43 45 33 24 3 6 8 7 9 17 29 20 24 17 25 31 18 13 6 4 4 4 5 4 4 4 6 6 7 19 13 14 16 20 23 23 9 7 10 2 21 16 27 36 45 47 42 41
67 60 55 52 47 42 37 36 26 12 3 3 4 5 15 14 18 11 23 22 17 16 8 3 3 4 6 5 5 9 6 9 2 13 25 17 14 11 11 16 21 19 16 8 15 15 23 42 46 50 44 41 37 37
62 59 53 48 43 39 35 36 15 5 3 4 6 11 21 8 27 11 15 22 14 12 1 3 4 10 8 4 6 3 6 13 39 35 25 14 11 10 11 17 17 16 13 9 8 6 10 21 29 35 38 40 36 39
60 57 52 50 48 44 36 24 8 2 4 6 2 17 28 36 39 33 29 22 13 10 10 2 7 2 5 4 3 13 35 44 27 20 9 6 5 8 9 15 13 19 13 11 11 10 11 18 23 29 35 36 34 34
60 53 52 53 50 36 10 6 6 5 4 10 20 19 22 21 33 28 21 8 12 12 7 2 3 3 3 21 22 29 36 37 33 17 5 5 9 5 10 12 20 16 17 16 18 18 16 21 24 28 35 38 39 38
55 55 49 39 33 15 9 8 8 6 8 8 6 8 9 7 8 12 11 10 11 6 5 4 2 22 27 26 34 30 23 22 16 24 37 12 3 17 14 20 18 14 20 25 26 26 26 19 38 32 30 27 37 38
45 42 33 19 29 20 11 9 10 9 6 8 2 4 6 12 11 6 4 3 7 7 5 9 24 22 17 14 15 17 18 15 12 3 14 17 24 22 21 24 19 23 22 32 42 25 34 28 58 60 62 46 47 41
42 35 19 18 16 10 11 11 6 4 7 9 8 7 2 6 4 8 10 12 9 20 26 15 18 10 14 9 13 10 6 6 4 3 10 15 17 20 26 25 31 26 34 41 44 32 27 25 26 35 30 49 50 37
46 35 19 12 9 11 6 9 6 2 4 2 2 3 5 5 10 10 5 7 10 24 20 7 10 13 13 6 5 8 10 12 15 14 16 19 21 22 22 25 26 34 36 32 38 33 30 22 17 16 23 37 33 34
25 11 9 10 8 8 10 6 7 4 6 8 5 5 2 3 5 7 3 12 25 26 28 26 13 7 8 12 18 20 19 17 22 24 24 24 26 27 25 23 24 28 36 41 42 43 39 21 33 25 23 26 24 20
8 6 9 2 7 11 10 13 12 10 7 9 6 5 6 10 3 4 7 17 27 33 31 20 24 14 12 15 20 21 17 15 18 16 16 20 22 23 24 26 27 28 30 32 33 36 34 30 40 34 33 27 11 14
6 4 9 8 12 9 11 11 13 14 9 11 10 6 4 2 4 7 7 21 29 21 6 7 3 1 7 13 15 18 23 22 24 17 16 19 23 27 32 37 42 44 43 45 46 36 34 35 37 41 43 45 35 28
4 6 3 10 11 8 8 11 19 17 7 7 7 8 4 6 6 5 14 13 6 9 10 9 7 8 10 15 20 25 23 20 27 23 26 30 31 27 24 30 33 33 37 40 41 40 40 41 40 37 36 32 29 31
12 11 7 17 15 4 3 6 7 8 8 5 5 9 5 7 4 13 19 15 10 6 3 6 11 14 16 18 19 25 28 25 24 22 24 27 25 22 10 26 25 23 27 32 32 33 30 34 32 27 28 39 47 41
7 8 8 13 11 8 6 6 4 3 4 7 3 6 13 8 11 15 13 6 7 10 11 15 18 21 21 21 27 27 26 27 27 25 26 27 25 28 30 27 29 34 31 28 31 28 32 33 35 35 40 43 32 35
13 9 4 9 7 6 10 11 13 15 17 18 19 22 25 30 34 30 27 21 17 19 23 27 24 22 26 27 29 34 32 29 26 27 31 27 25 35 39 40 40 40 40 36 33 36 40 43 45 40 41 47 37 37
3 7 7 9 7 13 12 15 17 15 18 22 24 27 28 28 29 30 32 30 28 25 29 32 27 26 31 34 30 31 35 35 32 32 33 32 27 24 25 27 28 33 40 44 42 40 34 34 35 42 43 50 59 52
7 9 12 17 21 17 16 18 22 27 29 31 33 32 31 27 27 29 27 26 28 34 37 38 38 33 25 15 21 19 19 26 29 31 33 36 39 44 49 50 50 50 53 57 60 62 64 60 57 48 37 35 31 37
9 14 18 17 15 18 17 20 23 32 33 35 39 41 44 43 34 34 19 14 15 15 13 20 26 18 6 13 20 21 22 24 30 29 31 31 35 42 45 42 42 46 48 47 46 45 47 45 37 35 37 42 50 39
Wind_Direction_850mb
227 223 226 211 212 210 210 206 206 206 199 202 202 196 200 209 213 217 218 225 264 258 277 339 13 33 28 26 28 332 59 110 138 161 255 258 262 271 53 40 137 120 93 297 9 111 294 209 276 179 316 257 227 248
228 217 223 207 214 209 206 203 204 203 196 198 199 193 194 201 200 199 202 218 254 242 253 311 335 351 70 31 6 324 342 41 7 -0 15 324 306 58 275 254 126 338 169 201 179 214 249 214 39 30 12 2 308 135
227 213 216 207 210 206 203 201 201 200 194 194 194 190 189 195 195 187 175 167 266 275 283 270 277 278 277 286 288 348 40 8 8 356 302 275 315 137 197 234 188 209 154 23 16 1 33 100 118 56 91 62 339 69
226 210 205 202 204 202 200 198 197 197 190 189 191 187 184 187 193 195 190 149 206 272 265 271 265 248 230 216 246 353 330 320 323 317 268 260 289 308 339 133 249 60 75 332 279 28 60 27 18 31 107 147 177 166
219 208 203 196 196 198 199 194 194 192 187 185 187 183 177 179 185 189 193 204 211 233 301 278 189 195 196 213 197 223 281 343 347 319 305 276 276 23 5 29 62 113 193 172 230 111 112 168 195 228 232 167 139 137
217 205 193 192 195 201 196 190 189 189 183 181 183 180 172 170 166 166 172 215 216 227 286 297 215 200 199 203 208 218 244 294 300 303 300 292 10 93 95 163 247 195 177 194 228 195 188 205 140 188 182 152 128 128
221 192 191 189 199 199 191 186 186 184 180 177 180 178 170 173 173 172 179 184 200 192 220 271 195 185 200 208 219 229 236 251 268 283 256 293 296 174 128 170 269 207 192 48 30 154 123 174 207 182 143 135 125 117
209 190 181 182 197 191 187 182 181 179 174 170 172 173 168 170 182 204 169 151 169 177 207 268 187 159 198 204 220 231 240 245 229 236 273 287 304 245 233 275 314 223 190 266 285 204 156 290 353 148 157 135 133 127
200 190 174 192 186 186 183 178 176 172 166 160 160 162 162 172 168 188 179 192 184 194 256 259 2 93 182 238 231 222 214 222 255 229 233 245 265 259 277 53 347 283 207 340 329 286 219 149 198 233 161 154 147 137
189 184 178 184 181 182 179 174 171 166 161 156 151 150 170 179 145 147 158 192 190 204 240 256 297 264 205 203 223 193 179 202 277 241 237 185 231 256 316 16 243 273 320 328 323 320 258 177 132 117 94 129 143 148
180 177 178 178 175 178 175 171 168 163 160 155 168 200 162 155 150 175 203 204 190 197 210 243 258 283 324 100 31 21 28 291 214 241 147 174 254 70 50 35 17 354 318 299 294 289 204 194 159 166 163 163 169 158
177 172 171 172 174 175 172 170 168 164 158 173 138 123 136 152 190 202 207 207 202 199 207 190 221 249 96 75 302 7 261 283 270 29 48 277 75 53 29 357 342 318 302 298 299 223 203 187 173 155 117 163 173 168
167 164 168 170 172 172 171 170 166 157 160 159 148 153 187 181 165 192 193 177 213 186 194 161 152 132 105 193 252 168 239 246 320 76 259 79 64 56 26 353 342 349 345 8 95 112 106 100 120 126 103 191 172 164
157 163 165 167 168 170 170 169 168 167 164 177 171 27 164 195 218 217 199 180 205 235 141 145 128 130 176 183 237 216 234 340 304 301 87 108 63 30 13 4 17 15 6 27 99 137 141 149 116 84 185 187 191 187
158 160 161 163 165 167 169 174 170 171 155 263 180 170 215 218 207 230 208 89 73 117 133 146 101 143 256 204 183 31 262 236 214 253 103 82 58 30 9 349 348 3 333 352 19 138 150 159 164 166 177 188 197 199
155 154 159 158 160 162 161 163 157 155 37 317 308 281 233 252 115 100 100 102 89 95 110 16 141 197 241 164 253 187 206 200 131 101 107 99 78 43 24 4 339 349 18 46 30 117 138 152 147 158 185 191 198 199
152 149 152 150 149 147 148 156 131 87 349 290 267 329 321 267 138 109 133 133 137 108 166 202 255 189 243 209 237 110 8 102 112 108 108 95 82 59 18 343 352 341 336 348 320 346 181 185 180 184 186 195 201 201
145 141 142 142 141 137 135 136 101 85 252 257 356 49 45 63 81 89 89 96 89 9 311 333 351 36 288 204 29 357 107 121 117 118 106 157 21 53 353 319 292 339 310 295 299 302 236 209 213 206 203 206 206 210
134 137 140 143 142 133 99 74 91 9 47 68 52 69 51 62 76 76 59 91 75 42 350 305 293 285 48 53 86 77 84 83 83 63 252 227 65 30 339 337 346 323 333 333 316 302 304 262 249 241 238 225 222 221
133 135 139 139 145 98 79 56 62 43 48 14 67 48 38 31 58 65 50 49 18 2 333 325 351 70 95 87 93 105 92 89 114 59 54 286 49 43 9 347 342 310 308 307 294 284 275 12 19 21 14 246 240 231
134 126 128 131 91 72 80 42 55 49 23 18 100 108 35 77 64 30 12 2 359 329 320 272 278 130 129 133 113 113 139 147 133 57 335 355 356 347 356 358 354 333 334 346 320 298 300 288 314 316 330 332 343 317
168 178 137 78 57 64 72 58 57 26 23 7 57 30 9 111 271 252 251 260 224 251 266 317 91 81 118 104 121 131 154 140 125 313 306 328 335 328 324 349 343 343 342 335 330 330 348 5 348 276 310 315 291 300
130 132 108 74 53 35 345 53 40 88 84 41 54 312 271 205 212 205 244 245 243 247 285 359 128 104 131 73 5 335 327 329 324 316 306 305 301 310 307 309 321 327 332 343 349 344 318 283 280 281 294 251 303 314
115 109 118 140 139 139 147 166 147 178 206 179 219 237 232 255 307 179 233 267 262 274 289 258 224 241 283 289 287 280 287 289 288 285 287 285 286 288 291 298 313 319 323 329 335 344 5 320 314 306 297 298 316 301
96 88 111 57 156 159 146 167 171 184 190 182 219 205 194 199 246 255 247 240 258 275 277 276 270 222 246 271 287 301 309 315 314 319 317 324 329 325 328 329 326 330 332 335 350 351 341 344 2 344 345 321 289 295
92 156 180 127 164 171 159 159 186 188 174 179 191 204 253 148 214 241 206 252 259 303 308 199 146 349 318 345 344 334 336 340 329 321 319 327 332 328 324 323 323 318 313 318 322 335 341 342 335 326 342 345 341 347
120 117 165 126 123 155 169 154 162 174 194 187 172 171 184 210 228 257 276 291 330 58 79 60 55 40 359 334 324 314 309 316 325 307 305 303 305 310 316 311 310 318 318 315 314 315 312 310 314 319 319 325 326 324
33 102 109 131 132 24 2 162 167 190 189 186 177 194 208 203 194 51 86 110 104 99 77 11 354 333 304 285 298 297 306 304 299 307 305 300 303 323 299 307 304 312 332 333 324 321 321 320 311 304 317 328 326 330
105 99 97 75 66 50 344 327 303 224 242 276 232 237 267 292 306 341 4 4 355 353 340 328 314 300 295 299 296 301 297 302 309 325 326 320 320 322 311 318 330 339 334 314 311 312 324 329 330 327 313 306 304 319
123 155 172 180 197 201 216 214 261 281 285 285 285 289 283 283 286 289 296 297 288 284 289 293 295 289 303 306 310 305 305 317 322 317 330 327 322 310 299 307 312 314 315 321 324 317 312 314 320 312 307 308 305 311
308 210 212 218 247 270 255 232 243 253 256 269 272 272 274 280 283 276 270 274 277 271 269 276 280 278 284 293 297 301 301 303 302 301 307 314 316 312 304 302 297 296 296 297 299 297 298 306 309 321 299 298 296 298
235 242 267 272 264 269 297 292 262 240 233 239 248 255 263 262 270 275 267 266 267 264 266 267 273 274 266 300 284 278 294 305 307 301 295 296 302 308 310 309 308 305 302 303 303 301 298 293 288 305 315 313 317 323
280 270 262 267 279 277 285 260 265 274 272 260 247 240 236 235 234 258 250 274 266 267 262 264 252 286 237 246 297 314 321 314 305 305 301 303 306 311 307 308 314 315 312 309 304 301 299 287 299 308 306 301 312 305